Temperature
8 9 9 9 9 9 8 7 7 8 9 10 10 10 9 9 8 8 8 7 7 7 7 7 7 7 7 7 6 6 6 5 5 6 6 6 6 6 6 5 5 5 5 4
7 9 9 9 10 10 9 9 9 8 9 10 10 9 9 8 7 7 7 6 6 6 6 6 6 5 5 5 5 5 5 4 4 5 5 5 5 5 5 5 4 4 4 3
8 10 10 9 11 10 10 10 9 9 9 10 9 9 7 6 6 6 6 6 5 5 4 4 4 4 4 4 3 3 3 3 3 4 5 5 5 5 4 4 3 3 3 2
7 8 8 11 12 11 10 10 10 10 10 10 9 8 6 5 5 5 5 4 4 4 3 3 3 3 3 2 2 2 2 2 3 4 4 4 4 4 3 3 3 2 2 1
7 8 9 12 11 11 10 10 10 10 9 9 9 8 5 4 4 3 3 3 2 2 2 1 1 1 1 1 1 1 1 2 3 4 4 4 3 3 2 2 2 1 1 1
7 7 8 12 11 11 9 9 10 9 9 8 8 8 5 3 2 2 2 1 1 1 0 0 0 0 0 -0 0 0 1 2 3 3 3 3 2 2 2 1 1 1 0 -0
7 7 9 12 12 11 10 10 10 9 8 7 6 5 3 2 1 1 0 0 0 -0 -0 -1 -1 -0 -0 -0 0 1 2 2 2 2 2 2 2 1 1 1 0 -0 -0 -1
7 7 8 12 12 11 10 10 9 8 7 6 5 4 3 2 1 0 -0 -1 -1 -1 -1 -1 -1 -0 -0 0 1 2 2 2 2 2 2 1 1 1 0 -0 -0 -1 -1 -2
9 9 11 13 12 11 10 9 8 7 6 6 5 3 2 2 1 0 0 -0 -1 -1 -1 -1 -0 1 2 1 2 2 2 2 2 1 1 0 0 -0 -0 -1 -1 -2 -2 -3
10 10 12 12 11 10 9 7 7 6 6 5 5 4 2 2 1 1 0 0 -0 0 0 0 1 2 3 2 2 2 2 1 1 1 0 -0 -0 -1 -1 -2 -2 -3 -3 -4
9 10 11 10 9 8 7 6 6 5 5 5 5 3 2 2 1 1 1 0 1 1 2 1 2 2 2 2 2 2 1 1 0 -0 -0 -1 -1 -2 -2 -3 -3 -4 -4 -5
10 10 10 9 8 8 7 6 5 5 4 4 4 3 2 2 1 1 1 1 2 2 2 2 2 2 1 1 1 1 1 0 -0 -1 -1 -1 -2 -2 -3 -3 -4 -5 -5 -6
11 10 9 8 8 7 6 5 4 4 3 3 3 3 2 1 1 1 1 2 2 3 2 2 2 1 1 1 1 0 0 -0 -1 -1 -2 -2 -2 -3 -3 -4 -5 -6 -6 -7
10 9 8 7 7 6 5 4 3 3 2 2 2 2 2 1 1 1 1 2 2 2 2 2 1 1 0 0 -0 -0 -1 -1 -1 -2 -2 -3 -3 -4 -4 -5 -5 -6 -7 -8
8 8 8 7 6 5 4 3 3 2 1 1 1 1 1 1 1 1 1 2 2 2 2 1 1 0 -0 -0 -1 -1 -1 -2 -2 -2 -3 -3 -4 -4 -5 -6 -7 -7 -7 -8
7 7 6 6 5 4 3 3 2 1 1 1 1 1 1 2 1 1 1 1 2 2 1 1 1 -0 -1 -1 -1 -1 -2 -2 -3 -3 -3 -4 -5 -5 -6 -7 -7 -8 -8 -9
6 5 5 4 4 4 3 3 3 2 2 2 1 1 2 1 1 1 1 1 1 1 1 0 -0 -1 -1 -1 -2 -2 -2 -3 -3 -4 -4 -5 -5 -6 -7 -7 -8 -8 -9 -9
5 5 6 6 5 4 3 3 3 3 3 3 2 2 2 2 2 1 1 1 1 0 -0 -1 -1 -1 -2 -2 -2 -3 -3 -3 -4 -4 -5 -6 -6 -7 -8 -8 -8 -9 -9 -9
4 5 5 5 5 5 4 4 4 3 3 3 3 2 2 2 2 1 1 0 0 -0 -1 -1 -2 -2 -2 -3 -3 -3 -4 -4 -4 -5 -6 -6 -7 -8 -8 -9 -9 -9 -10 -10
4 4 4 4 4 4 4 4 4 4 3 3 3 2 2 2 1 1 0 -0 -0 -0 -1 -2 -2 -3 -3 -3 -3 -4 -4 -5 -5 -6 -6 -7 -8 -8 -9 -9 -9 -10 -10 -10
3 4 4 4 4 3 4 4 4 4 3 3 3 3 2 1 1 1 0 -0 -1 -2 -2 -2 -3 -3 -3 -4 -4 -4 -5 -5 -6 -6 -7 -7 -8 -9 -9 -9 -10 -10 -10 -10
3 3 3 3 3 3 3 4 4 4 4 3 3 3 2 1 0 -0 -0 -0 -1 -2 -2 -3 -3 -3 -4 -4 -4 -5 -5 -6 -6 -7 -7 -8 -8 -9 -9 -10 -10 -10 -10 -10
2 2 2 2 2 3 3 3 3 3 4 3 3 2 2 1 1 0 -1 -1 -2 -2 -3 -3 -4 -4 -4 -4 -5 -5 -6 -6 -7 -7 -8 -8 -9 -9 -9 -10 -10 -10 -10 -10
1 1 1 1 1 2 2 2 2 2 2 2 2 2 2 1 -0 -1 -1 -2 -2 -3 -3 -4 -4 -4 -4 -5 -5 -6 -6 -7 -7 -8 -8 -9 -9 -9 -10 -10 -10 -10 -10 -10
0 0 0 0 0 1 1 1 1 1 1 1 1 1 1 0 0 -1 -2 -2 -3 -3 -4 -4 -4 -4 -5 -5 -6 -6 -7 -7 -8 -8 -9 -9 -9 -9 -10 -10 -10 -10 -10 -10
-0 -0 -1 -1 -0 -0 0 1 1 1 1 1 0 0 -0 -1 -1 -2 -2 -3 -3 -4 -4 -4 -5 -5 -5 -6 -6 -7 -7 -8 -8 -8 -9 -9 -9 -10 -10 -10 -10 -10 -10 -9
-1 -1 -1 -1 -1 -1 -1 -0 0 1 1 1 1 -0 -1 -1 -2 -2 -3 -3 -4 -4 -4 -5 -5 -5 -6 -6 -7 -7 -7 -8 -8 -9 -9 -9 -9 -10 -10 -10 -10 -10 -9 -9
Wind_Speed
9 10 9 11 13 14 16 16 15 18 25 28 23 19 16 13 12 10 7 5 1 2 4 7 9 11 13 14 15 16 16 15 15 16 16 17 16 15 14 13 12 10 9 7
7 12 13 16 16 15 16 17 19 22 25 18 14 13 12 10 10 7 3 1 3 5 7 10 11 12 14 13 14 15 16 15 16 17 17 16 16 15 14 12 10 9 7 6
4 6 8 9 9 9 8 8 10 12 13 16 14 12 10 9 7 4 2 2 6 7 9 10 11 13 13 13 14 15 16 16 17 18 18 16 16 14 13 10 8 7 6 4
4 6 5 2 5 4 5 9 9 11 13 13 9 5 6 7 6 5 4 6 8 10 10 10 11 13 14 14 15 16 16 16 16 17 17 15 14 13 10 8 7 6 4 3
2 5 8 4 3 2 3 5 3 7 11 11 7 0 6 9 7 6 7 9 10 11 11 12 13 14 15 15 15 15 16 16 15 16 16 14 13 11 8 7 6 4 3 2
3 4 4 1 3 3 2 4 1 5 9 10 8 3 4 8 10 11 12 11 12 12 13 13 13 14 16 16 15 15 15 15 15 14 14 13 11 9 6 6 5 3 2 0
6 5 7 4 1 1 2 3 5 5 5 6 4 4 5 8 10 11 12 13 13 13 13 12 13 14 16 16 15 15 15 15 14 13 13 11 9 7 6 5 3 1 0 2
6 6 7 2 1 2 3 3 3 2 2 3 6 7 9 9 11 11 12 13 13 13 13 12 13 15 16 16 14 14 15 15 13 11 10 9 8 6 5 4 2 2 2 3
7 8 5 2 2 2 2 3 3 2 1 5 7 8 9 9 10 10 11 12 12 13 14 13 12 13 17 15 14 15 15 14 12 10 8 7 7 5 4 3 3 3 3 3
5 7 7 3 2 4 4 3 3 2 1 5 8 10 10 10 10 10 11 11 12 14 15 14 13 13 14 14 13 15 14 12 9 9 8 7 5 4 3 4 4 4 4 4
6 8 5 2 4 4 4 4 3 3 2 6 10 11 11 10 10 10 11 11 11 13 15 15 14 13 12 12 13 14 12 10 8 7 6 5 4 4 4 3 3 2 2 3
4 1 2 2 3 4 4 4 4 5 7 8 10 12 12 10 10 10 11 12 13 14 15 14 13 12 10 10 11 12 10 8 6 5 5 4 3 2 2 1 2 3 4 5
2 1 2 3 4 5 5 5 6 7 8 10 10 11 12 11 10 12 13 13 14 14 14 14 13 12 9 9 10 11 9 7 5 5 4 4 4 4 3 4 5 6 7 9
2 1 1 3 4 6 7 8 8 9 9 10 11 12 12 13 12 13 13 12 13 14 14 14 13 11 9 10 11 10 8 8 7 5 5 4 4 3 3 3 4 5 6 10
2 1 3 7 8 8 8 8 9 9 10 11 11 12 13 14 14 13 13 13 14 14 14 13 13 10 8 9 10 9 7 5 5 4 4 3 3 3 3 4 4 4 4 7
4 5 6 7 8 8 8 9 9 10 10 11 11 12 13 14 14 13 11 11 13 14 12 12 11 9 8 9 9 8 6 8 6 4 4 3 3 3 3 4 4 4 5 5
3 3 5 6 8 8 8 8 9 11 11 12 13 14 15 15 14 13 12 11 12 12 11 11 10 8 8 8 8 6 5 5 6 4 3 3 3 3 3 4 4 5 5 8
5 4 6 7 9 10 10 10 11 11 12 14 15 15 15 15 15 14 13 13 14 13 10 9 9 9 8 8 6 5 4 4 3 3 2 2 3 3 3 4 5 6 6 8
3 3 4 7 9 10 11 11 12 12 13 14 15 14 13 13 13 14 13 12 13 11 7 8 13 9 8 7 7 5 4 3 3 2 2 4 4 3 4 4 5 5 6 7
2 1 3 7 9 10 12 12 13 13 13 13 15 15 14 13 12 12 11 9 6 7 8 9 9 7 7 6 6 4 4 3 2 2 2 3 3 4 4 5 5 6 6 7
3 2 5 7 9 10 11 13 14 14 13 13 14 16 15 12 11 11 12 10 6 8 9 11 7 6 5 5 5 4 3 3 2 2 3 3 4 4 4 5 6 7 7 7
3 3 5 8 10 10 10 10 12 14 14 13 13 15 15 13 11 9 8 7 8 12 8 6 6 7 6 5 4 3 2 2 2 2 3 3 4 4 5 5 6 6 7 7
3 3 5 7 9 10 10 10 11 12 13 15 15 15 14 12 10 10 8 6 7 11 8 6 8 9 7 4 3 2 1 2 2 3 3 4 4 4 5 6 6 6 7 7
3 3 4 7 8 10 10 10 9 9 10 10 10 11 13 11 7 5 8 14 14 12 7 9 10 7 5 3 2 1 1 2 2 3 4 4 4 4 5 6 6 6 7 8
3 3 5 7 8 7 9 11 12 12 12 10 10 9 7 6 7 10 9 10 14 12 7 8 8 6 3 2 1 1 2 3 4 4 4 4 5 5 5 6 6 7 7 8
1 2 3 4 5 7 8 10 10 10 12 12 9 7 8 9 11 10 9 9 10 11 7 5 4 3 2 1 1 2 3 4 5 4 4 5 6 6 6 6 8 7 7 8
2 3 4 5 6 7 7 8 10 11 11 13 12 9 10 10 10 10 10 8 7 6 5 4 3 2 1 1 2 3 3 4 4 4 5 5 5 6 6 7 7 7 7 8
Wind_Direction
270 280 268 253 248 236 233 239 254 269 277 286 295 302 304 304 300 296 291 279 233 125 115 112 108 107 108 111 114 119 122 126 128 126 123 120 117 115 113 110 108 105 106 104
265 259 257 259 254 249 248 249 254 268 278 285 298 304 308 311 307 302 299 267 118 112 111 112 113 113 112 113 115 119 123 125 124 122 119 115 113 111 108 105 105 106 107 112
276 297 293 265 238 228 238 251 262 273 285 306 310 321 333 332 327 330 349 94 105 107 107 110 112 114 114 117 117 119 121 123 122 120 116 112 112 109 108 108 109 108 108 110
294 308 263 219 128 163 252 268 266 277 295 307 309 326 10 4 1 11 50 91 100 103 102 102 105 108 111 113 116 118 120 120 119 116 112 110 108 107 107 109 109 109 107 96
273 287 279 262 153 171 270 281 279 303 315 325 320 243 44 27 35 53 75 90 94 97 101 102 105 110 113 114 115 116 117 116 115 113 112 110 108 106 105 105 102 101 96 74
254 280 273 36 118 133 187 258 9 335 328 334 344 357 25 37 55 71 82 90 97 100 101 102 105 110 113 114 113 113 113 111 109 108 108 108 108 105 101 99 98 96 99 288
232 253 273 298 120 183 284 306 329 334 337 355 31 56 74 73 76 84 91 96 101 105 106 108 111 113 112 111 111 112 110 107 103 102 104 106 104 100 100 95 90 78 355 310
199 223 252 268 11 298 287 304 314 332 28 75 100 96 91 91 93 97 102 106 109 111 112 114 117 117 113 112 112 110 107 103 101 99 101 103 101 96 91 85 59 20 13 353
204 228 259 294 278 315 349 321 350 6 65 134 123 113 107 103 103 104 107 111 114 114 111 108 109 115 114 113 113 110 104 102 100 97 93 92 95 93 82 63 47 27 14 351
259 265 277 305 39 47 45 20 16 350 221 144 131 125 119 114 111 109 108 110 113 111 108 104 104 107 112 116 114 109 105 102 99 97 90 80 72 68 67 61 47 23 8 356
254 272 276 78 59 49 61 61 49 43 83 126 130 127 123 119 117 116 113 109 109 111 110 109 110 108 110 113 112 107 103 99 94 91 93 84 72 63 71 79 79 32 354 345
242 309 5 81 73 68 84 79 81 90 89 102 120 125 123 120 117 115 113 112 111 111 111 111 109 106 103 104 108 108 104 97 93 90 84 82 72 58 73 77 14 342 326 323
279 44 82 114 90 82 94 93 91 98 106 109 112 119 120 118 115 113 113 115 116 115 113 110 105 100 95 95 97 100 102 99 91 86 78 65 54 44 13 347 334 324 323 324
57 115 198 155 119 101 102 99 96 94 96 104 111 114 116 115 114 114 115 116 115 113 110 106 100 92 88 92 93 92 89 85 83 76 69 59 48 30 12 355 342 334 336 336
37 52 108 109 108 110 113 114 111 109 109 108 112 117 119 119 117 115 116 117 113 108 106 103 97 90 87 92 92 89 85 80 76 74 65 53 35 15 358 350 338 326 326 335
75 80 113 130 138 139 139 137 132 129 126 122 119 117 116 115 115 114 113 115 115 111 108 103 97 92 90 91 90 86 80 82 76 67 56 41 21 6 358 348 335 328 326 321
159 173 171 168 167 164 159 150 142 138 133 129 126 123 122 119 115 109 103 99 101 101 100 101 98 91 86 87 92 94 90 79 68 61 52 32 9 358 348 337 327 322 318 321
248 226 195 183 175 167 155 144 140 139 136 133 131 130 130 128 124 118 114 108 100 91 85 93 96 89 81 78 83 86 88 82 67 60 36 16 354 339 331 326 323 320 317 322
282 225 193 173 164 157 149 144 141 137 136 138 137 132 126 123 122 122 120 116 113 109 105 107 107 94 86 82 85 79 81 75 61 45 19 352 350 341 334 324 318 315 316 320
352 84 139 142 143 144 144 142 140 140 142 140 132 127 125 126 128 124 114 102 101 120 124 115 104 97 91 84 83 77 74 64 45 22 3 348 336 330 324 321 319 316 315 315
18 89 125 133 133 135 142 146 147 146 143 140 138 136 133 130 126 122 117 110 104 116 119 117 106 103 97 98 85 76 65 47 26 7 347 334 327 322 320 318 318 317 315 315
18 91 120 128 132 135 139 143 145 143 140 136 134 134 133 131 124 111 101 122 132 130 117 108 106 114 115 100 81 75 56 28 3 344 331 324 319 314 309 307 304 305 306 306
26 89 120 131 136 135 132 137 141 144 144 144 146 145 141 137 135 130 123 128 132 130 119 116 125 123 112 93 84 68 33 358 338 327 315 305 298 294 294 297 297 300 302 304
49 85 111 122 126 134 137 135 130 128 127 128 132 136 135 130 114 101 126 139 139 126 117 129 128 121 108 91 79 42 353 331 317 306 299 295 292 292 291 293 295 298 298 301
77 105 123 135 142 142 134 129 124 125 124 122 117 113 112 118 127 129 127 133 135 124 118 126 124 114 97 85 53 345 317 295 283 287 289 297 296 294 291 290 291 295 297 297
107 138 144 145 138 138 143 144 144 143 139 133 124 113 110 113 119 122 121 121 124 125 120 109 108 105 89 53 337 313 304 306 314 313 299 294 290 290 291 293 295 295 294 293
133 128 123 121 133 146 152 153 153 152 150 145 135 129 126 125 124 123 121 119 118 118 117 115 112 108 81 328 310 304 301 297 293 290 289 288 287 287 290 292 292 292 293 293
Height
1443 1440 1439 1439 1439 1439 1442 1442 1440 1426 1417 1404 1400 1396 1392 1389 1385 1382 1379 1377 1376 1376 1378 1379 1382 1386 1388 1392 1395 1400 1406 1412 1417 1422 1427 1433 1440 1447 1453 1458 1463 1466 1469 1471
1439 1433 1431 1430 1427 1428 1428 1427 1425 1420 1410 1400 1396 1393 1388 1385 1382 1379 1377 1376 1376 1377 1378 1381 1383 1386 1389 1394 1398 1402 1408 1413 1418 1423 1429 1435 1442 1448 1454 1459 1463 1466 1468 1469
1436 1425 1425 1424 1414 1417 1418 1416 1416 1413 1406 1398 1393 1390 1388 1384 1381 1378 1377 1376 1377 1378 1380 1383 1385 1388 1392 1396 1400 1405 1410 1415 1419 1425 1431 1437 1444 1450 1455 1459 1463 1465 1466 1467
1438 1432 1429 1414 1407 1410 1413 1410 1409 1406 1401 1396 1392 1390 1388 1385 1382 1379 1378 1378 1379 1381 1383 1386 1388 1391 1395 1399 1404 1408 1413 1418 1423 1428 1434 1440 1447 1452 1456 1460 1462 1464 1464 1465
1439 1433 1422 1408 1407 1408 1411 1408 1405 1403 1399 1394 1390 1388 1388 1387 1384 1381 1380 1381 1382 1384 1386 1389 1392 1395 1398 1403 1408 1412 1417 1422 1427 1433 1438 1444 1449 1453 1457 1459 1461 1462 1463 1463
1437 1434 1425 1409 1406 1405 1410 1407 1403 1401 1398 1394 1390 1389 1393 1390 1387 1384 1383 1384 1385 1387 1390 1392 1396 1399 1402 1407 1412 1417 1422 1426 1432 1437 1442 1447 1451 1454 1457 1459 1460 1461 1461 1460
1435 1433 1420 1406 1404 1405 1410 1407 1401 1399 1397 1395 1394 1396 1396 1393 1390 1389 1388 1388 1390 1391 1394 1397 1401 1404 1408 1412 1417 1421 1426 1431 1436 1442 1446 1449 1452 1455 1457 1458 1459 1459 1459 1458
1429 1429 1422 1402 1402 1404 1404 1400 1398 1397 1396 1395 1395 1396 1395 1395 1394 1393 1393 1394 1395 1397 1400 1404 1407 1410 1413 1417 1422 1427 1432 1436 1441 1445 1448 1451 1453 1455 1456 1457 1457 1457 1456 1454
1416 1414 1403 1400 1400 1400 1399 1397 1396 1395 1395 1395 1395 1396 1396 1397 1397 1398 1399 1400 1402 1403 1406 1410 1414 1417 1419 1423 1428 1432 1437 1440 1444 1447 1450 1452 1454 1455 1456 1456 1455 1454 1453 1451
1408 1403 1399 1398 1398 1397 1396 1395 1394 1393 1393 1393 1394 1395 1397 1398 1400 1401 1403 1405 1407 1409 1411 1415 1419 1423 1426 1429 1434 1438 1441 1444 1447 1449 1451 1453 1454 1455 1454 1454 1453 1451 1450 1448
1405 1400 1398 1397 1397 1396 1395 1393 1392 1391 1392 1393 1394 1396 1398 1400 1402 1404 1406 1409 1411 1413 1416 1419 1424 1428 1432 1435 1438 1441 1444 1447 1449 1451 1452 1453 1454 1454 1453 1452 1451 1449 1447 1445
1401 1398 1397 1397 1396 1395 1393 1392 1392 1391 1392 1393 1394 1396 1399 1401 1404 1406 1409 1411 1415 1418 1420 1424 1428 1432 1436 1439 1442 1444 1446 1449 1450 1452 1452 1453 1453 1453 1451 1451 1449 1447 1445 1443
1396 1396 1396 1395 1395 1393 1393 1392 1392 1392 1393 1394 1396 1398 1400 1403 1406 1409 1411 1415 1418 1421 1425 1429 1432 1436 1439 1443 1445 1447 1448 1450 1451 1452 1452 1452 1452 1451 1450 1449 1447 1445 1442 1440
1394 1394 1394 1394 1393 1393 1392 1392 1392 1393 1394 1396 1398 1400 1402 1405 1408 1411 1415 1418 1422 1425 1429 1433 1436 1439 1443 1445 1447 1449 1450 1451 1452 1452 1452 1451 1450 1449 1448 1446 1444 1442 1440 1437
1393 1392 1392 1392 1392 1392 1392 1392 1393 1395 1396 1398 1400 1402 1405 1407 1410 1414 1418 1422 1426 1429 1433 1437 1439 1442 1445 1447 1449 1450 1451 1451 1452 1452 1451 1450 1449 1448 1446 1444 1442 1439 1437 1434
1391 1391 1390 1390 1391 1391 1392 1393 1394 1396 1398 1400 1402 1405 1408 1410 1414 1418 1422 1426 1429 1433 1436 1440 1442 1445 1447 1449 1450 1451 1451 1451 1451 1451 1450 1449 1447 1446 1444 1441 1439 1436 1433 1430
1389 1389 1389 1389 1389 1390 1392 1394 1395 1397 1399 1401 1404 1407 1410 1414 1417 1421 1426 1430 1434 1437 1440 1443 1445 1447 1449 1450 1451 1451 1451 1451 1451 1450 1449 1447 1445 1443 1441 1439 1437 1434 1431 1428
1387 1387 1387 1387 1388 1389 1391 1394 1396 1398 1400 1403 1406 1410 1413 1416 1420 1424 1428 1433 1436 1439 1442 1445 1447 1448 1450 1450 1451 1451 1451 1451 1450 1449 1447 1445 1443 1441 1439 1437 1434 1431 1428 1425
1384 1384 1384 1385 1386 1388 1390 1393 1396 1399 1402 1405 1409 1412 1416 1420 1424 1428 1432 1435 1438 1440 1443 1446 1448 1449 1450 1451 1451 1451 1450 1449 1448 1447 1445 1443 1441 1439 1437 1434 1431 1429 1426 1422
1382 1382 1383 1384 1385 1388 1390 1393 1396 1400 1404 1407 1410 1414 1418 1423 1427 1430 1434 1437 1440 1442 1444 1446 1448 1449 1450 1450 1450 1450 1449 1448 1447 1445 1443 1441 1439 1437 1434 1431 1429 1426 1423 1420
1382 1382 1382 1383 1385 1388 1391 1394 1397 1400 1404 1408 1412 1416 1420 1424 1428 1432 1435 1437 1441 1443 1445 1447 1448 1449 1450 1450 1449 1449 1448 1446 1445 1443 1441 1439 1436 1434 1431 1429 1426 1423 1420 1418
1383 1383 1383 1384 1386 1388 1391 1395 1398 1402 1405 1409 1414 1418 1421 1425 1429 1433 1436 1439 1441 1443 1445 1447 1448 1448 1449 1449 1448 1447 1446 1445 1443 1441 1439 1436 1434 1431 1429 1426 1423 1421 1418 1415
1383 1383 1384 1385 1387 1389 1392 1395 1399 1402 1406 1409 1414 1418 1421 1425 1429 1432 1435 1439 1441 1443 1445 1446 1447 1447 1448 1447 1447 1445 1444 1442 1441 1438 1436 1434 1431 1429 1426 1423 1421 1418 1415 1413
1384 1384 1385 1386 1387 1389 1391 1395 1398 1403 1407 1411 1415 1419 1422 1425 1429 1433 1436 1438 1440 1442 1444 1445 1446 1446 1446 1446 1445 1444 1442 1440 1438 1436 1434 1431 1428 1426 1423 1421 1418 1416 1413 1410
1385 1384 1385 1386 1387 1389 1391 1394 1398 1402 1406 1410 1415 1419 1423 1427 1429 1432 1435 1437 1440 1442 1443 1444 1445 1445 1445 1444 1443 1441 1440 1438 1435 1433 1431 1428 1426 1423 1420 1418 1415 1413 1410 1408
1385 1384 1385 1386 1387 1388 1390 1393 1396 1400 1404 1409 1413 1418 1422 1426 1429 1432 1434 1437 1439 1441 1442 1443 1443 1443 1443 1442 1441 1439 1437 1435 1433 1430 1428 1425 1423 1420 1418 1415 1412 1410 1408 1405
1384 1384 1384 1385 1386 1388 1390 1393 1396 1399 1404 1408 1412 1416 1421 1425 1428 1431 1434 1436 1438 1440 1441 1442 1442 1441 1441 1439 1438 1436 1434 1432 1430 1427 1425 1422 1420 1417 1415 1412 1410 1408 1405 1403